Location: Waco, TX
(31.5480°N, 97.1670°W)
Time: 22:57:29
(UTC-05:00)

ISS - Pass Details

Date: 18 April 2018
Orbit: 403 x 406 km, 51.6° (Epoch: 23 April)

Event Time Altitude Azimuth Distance (km) Brightness Sun altitude
Rises 10:51:41 0° 233° (SW) 2,303 -0.2 48.5°
Reaches altitude 10° 10:53:47 10° 238° (WSW) 1,448 -1.2 48.9°
Maximum altitude 10:56:58 53° 317° (NW) 500 -3.1 49.6°
Drops below altitude 10° 11:00:10 10° 35° (NE) 1,457 -0.8 50.2°
Sets 11:02:17 0° 41° (NE) 2,320 0.2 50.6°
